Weather History for KCON - February, 2012

Change the Weather History Date:

Tuesday, February 21, 2012

  Actual Average Record
Temperature  
Mean Temperature 27 °F 26 °F  
Max Temperature 41 °F 37 °F 64 °F (1872)
Min Temperature 13 °F 15 °F -17 °F (2015)
Degree Days  
Heating Degree Days 38 39  
Month to date heating degree days 742 871  
Since 1 July heating degree days 4240 4993  
Cooling Degree Days 0 0  
Month to date cooling degree days 0 0  
Year to date cooling degree days 0 0  
Moisture  
Dew Point 22 °F    
Average Humidity 67    
Maximum Humidity 96    
Minimum Humidity 37    
Precipitation  
Precipitation 0.02 in 0.09 in 1.40 in (1996)
Month to date precipitation 0.10 1.93  
Year to date precipitation 2.96 4.63  
Snow  
Snow 0.00 in 0.40 in 15.00 in (1929)
Month to date snowfall 0.0 9.4  
Since 1 July snowfall 36.5 44.6  
Snow Depth -    
Sea Level Pressure  
Sea Level Pressure 30.08 in    
Wind  
Wind Speed 4 mph (SSE)    
Max Wind Speed 17 mph    
Max Gust Speed 23 mph    
Visibility 7 miles    
Events Snow    
T = Trace of Precipitation, MM = Missing Value Source: NWS Daily Summary

Daily Weather History Graph

Daily Weather History Graph

Search for Another Location

Airport or City:

Trip Planner

Search our weather history database for the weather conditions in past years. The results will help you decide how hot, cold, wet, or windy it might be!

Date:

Astronomy

Feb. 21, 2012 Rise Set
Actual Time 6:35 AM EST 5:24 PM EST
Civil Twilight 6:06 AM EST 5:53 PM EST
Nautical Twilight 5:33 AM EST 6:26 PM EST
Astronomical Twilight 5:00 AM EST 6:59 PM EST
Moon 6:02 AM EST (2/21) 5:29 PM EST (2/21)
Length of Visible Light 11h 46m
Length of Day
10h 48m
Waning Crescent, 0% of the Moon is Illuminated
Feb 21
Waning Crescent
Feb 21
New
Feb 29
First Quarter
Mar 8
Full
Mar 14
Last Quarter

Hourly Weather History & Observations

Time (EST) Temp. Windchill Dew Point Humidity Pressure Visibility Wind Dir Wind Speed Gust Speed Precip Events Conditions
12:51 AM 21.9 °F - 15.1 °F 75% 30.32 in 10.0 mi Calm Calm - N/A   Clear
1:51 AM 19.9 °F - 14.0 °F 78% 30.32 in 10.0 mi Calm Calm - N/A   Clear
2:51 AM 17.1 °F - 14.0 °F 88% 30.32 in 10.0 mi Calm Calm - N/A   Clear
3:51 AM 17.1 °F - 14.0 °F 88% 30.33 in 10.0 mi Calm Calm - N/A   Clear
4:51 AM 15.1 °F 7.7 °F 12.9 °F 91% 30.32 in 10.0 mi SE 4.6 mph - N/A   Clear
5:51 AM 14.0 °F - 12.0 °F 92% 30.32 in 10.0 mi Calm Calm - N/A   Clear
6:51 AM 12.9 °F - 10.0 °F 88% 30.33 in 10.0 mi Calm Calm - N/A   Clear
7:51 AM 19.9 °F - 17.1 °F 89% 30.33 in 10.0 mi Calm Calm - N/A   Clear
8:51 AM 28.0 °F - 19.0 °F 69% 30.32 in 10.0 mi Calm Calm - N/A   Clear
9:51 AM 30.9 °F - 18.0 °F 59% 30.30 in 10.0 mi Calm Calm - N/A   Clear
10:51 AM 33.8 °F 29.6 °F 17.6 °F 52% 30.25 in 10.0 mi Variable 4.6 mph - N/A   Clear
11:51 AM 36.0 °F 28.0 °F 16.0 °F 44% 30.23 in 10.0 mi SSE 11.5 mph 16.1 mph N/A   Clear
12:51 PM 37.0 °F 31.0 °F 16.0 °F 42% 30.18 in 10.0 mi SE 8.1 mph - N/A   Clear
1:51 PM 39.9 °F 33.9 °F 15.1 °F 36% 30.14 in 10.0 mi SSE 9.2 mph - N/A   Clear
2:51 PM 39.9 °F 33.4 °F 15.1 °F 36% 30.09 in 10.0 mi SSE 10.4 mph - N/A   Clear
3:51 PM 39.9 °F 33.9 °F 15.1 °F 36% 30.07 in 10.0 mi SSE 9.2 mph - N/A   Clear
4:51 PM 39.0 °F 32.3 °F 15.1 °F 38% 30.05 in 10.0 mi SSE 10.4 mph - N/A   Clear
5:51 PM 37.0 °F 34.5 °F 14.0 °F 39% 30.02 in 10.0 mi SSE 3.5 mph - N/A   Clear
6:51 PM 37.0 °F 30.4 °F 16.0 °F 42% 29.98 in 10.0 mi SSE 9.2 mph - N/A   Clear
7:51 PM 37.0 °F 29.8 °F 19.9 °F 50% 29.98 in 10.0 mi South 10.4 mph - N/A   Overcast
8:28 PM 35.6 °F 26.2 °F 24.8 °F 65% 29.95 in 3.0 mi South 15.0 mph 23.0 mph N/A Snow Light Snow
8:35 PM 33.8 °F 25.8 °F 26.6 °F 75% 29.95 in 2.5 mi South 10.4 mph 20.7 mph 0.00 in Snow Light Snow
8:44 PM 33.8 °F 26.4 °F 28.4 °F 81% 29.94 in 3.0 mi South 9.2 mph 16.1 mph N/A Snow Light Snow
8:51 PM 33.8 °F 26.4 °F 28.4 °F 81% 29.94 in 1.5 mi South 9.2 mph - N/A Snow Light Snow
9:07 PM 32.0 °F 26.4 °F 30.2 °F 93% 29.93 in 2.0 mi SSE 5.8 mph - 0.01 in Snow Light Snow
9:19 PM 32.0 °F 27.5 °F 30.2 °F 93% 29.93 in 1.8 mi SSE 4.6 mph - 0.01 in Snow Light Snow
9:29 PM 32.0 °F 27.5 °F 30.2 °F 93% 29.92 in 2.5 mi SE 4.6 mph - 0.01 in Snow Light Snow
9:47 PM 32.0 °F 26.4 °F 30.2 °F 93% 29.91 in 2.5 mi SSE 5.8 mph - 0.01 in Snow Light Snow
9:51 PM 32.0 °F 27.5 °F 30.0 °F 92% 29.92 in 2.5 mi SSE 4.6 mph - 0.02 in Snow Light Snow
10:00 PM 32.0 °F 28.7 °F 30.2 °F 93% 29.90 in 2.0 mi SSE 3.5 mph - 0.00 in Snow Light Snow
10:07 PM 32.0 °F - 30.2 °F 93% 29.90 in 2.0 mi Calm Calm - 0.00 in Snow Light Snow
10:15 PM 32.0 °F 28.7 °F 30.2 °F 93% 29.90 in 1.8 mi SE 3.5 mph - 0.00 in Snow Light Snow
10:22 PM 32.0 °F 27.5 °F 30.2 °F 93% 29.90 in 2.0 mi SE 4.6 mph - 0.00 in Snow Light Snow
10:39 PM 32.0 °F 28.7 °F 30.2 °F 93% 29.89 in 6.0 mi SE 3.5 mph - 0.00 in   Overcast
10:51 PM 32.0 °F - 30.9 °F 96% 29.90 in 10.0 mi Calm Calm - 0.00 in   Overcast
11:51 PM 32.0 °F - 30.9 °F 96% 29.86 in 10.0 mi Calm Calm - N/A   Overcast